LiveATC.Net - Listen to live air traffic control over the Internet!


ICAO: UUEE  IATA: SVO   Airport: Sheremetyevo Airport
City: Moscow
Country: Russia   Continent: Europe
UUEE METAR Weather: UUEE 231300Z 32004MPS 290V360 CAVOK 21/08 Q1008 R06R/CLRD62 R06C/CLRD62 NOSIG
UUEE ADS-B Flight Tracking  (ADSBExchange)
UUEE Flight Activity (FlightAware)

UUEE Twr/App/Radar
Feed Status: DOWN
Last heard on: 2023-08-19 16:35:40 (308 days 21 hours 1 minutes ago)
Archive Access: UUEE Twr/App/Radar
FacilityFrequency
Sheremetyevo Radar (low altitude)119.300
Sheremetyevo Radar/Arrival122.700
Sheremetyevo Radar/Departure126.600
Sheremetyevo Tower131.500

NOTICE

Unauthorized use prohibited. See LiveATC.net Terms of Service


Airport/ARTCC Code
Frequency Search
(e.g., 124.400, 128.75)
Site-wide search
 


Browse Feeds
Top 50 Feeds
HF Oceanic Feeds
Coverage Map
Bad Weather Areas

LiveATC FAQ

Increase Coverage

Contact LiveATC.net
Press Inquiries

LiveATC on iPhone
LiveATC on Android

LiveATC Mobile
(Mobile browser)

ATC Audio Archives
Interesting Recordings

LiveATC Forums


Home Page
About LiveATC.net


Terms of Use
Privacy Policy

AIRMETs/SIGMETs

FAA Airport Status
NAS Status
Arrival Demand


Server Software By:
Icecast.org
Liquidsoap